User: anonymous   Login
Location: Unspecified
(0.0000°N, 0.0000°E)
Time: 00:50:16
(UTC+00:00)
Language:

AII-BRAVO - Orbit

View from above orbital plane
View from above orbital plane
View from above satellite
View from above satellite

Ground track
Ground track

The orbit is defined by the following mean orbital elements,

1 48270U          26145.12513933 +.00000000 +00000-0 +22842-3 0 00000
2 48270  97.5623 200.5644 0005504   1.5248 358.5993 15.03261346    03
Epoch (UTC): 25 May 2026 03:00:12
Eccentricity: 0.0005504
inclination: 97.5623°
perigee height: 553 km
apogee height: 561 km
right ascension of ascending node: 200.5644°
argument of perigee: 1.5248°
revolutions per day: 15.03261346
mean anomaly at epoch: 358.5993°

The dashed part of the orbit path shows where the satellite is in the earth's shadow,  

DLR